[[{"header":{"parameterUnit":"m.s-1","parameterCategory":2,"la1":30.2991,"la2":30.254,"lo1":-89.0895,"lo2":-89.0444,"dy":0.0017,"dx":0.0017,"nx":28,"ny":28,"refTime":"2024-05-17T03:00:00:Z","depth":"0","parameterNumber":2,"parameterNumberName":"U-component_of_CURRENTS"},"data":[0,0,0,0,0,0,0,0,0,0,0,0,0,0,0,0,0,0,0,0,0,0,0,0,0,0,0,0,0,0,0,0,0,0,0,0,0,0,0,0,0,0,0,0,0,0,0,0,0,0,0,0,0,0,0,0,0,0,-0.3132,-0.3131,0,-0.3065,-0.3064,-0.3063,-0.3043,-0.3043,-0.3044,-0.3044,-0.3,-0.2998,-0.2996,0,0,0,0,0,0,0,0,0,0,0,0,0,-0.306,-0.3062,-0.3132,-0.3131,-0.3131,-0.3066,-0.3064,-0.3063,-0.3042,-0.3043,-0.3044,-0.3045,-0.3,-0.2998,-0.2996,0,0,0,0,0,0,0,0,0,0,0,0,0,-0.3049,-0.3063,-0.3132,-0.3115,-0.3113,-0.3066,-0.3064,-0.3063,-0.3042,-0.3043,-0.3044,-0.3045,-0.3001,-0.2998,-0.2996,-0.2961,0,0,-0.2988,-0.2987,0,0,0,0,0,0,0,0,-0.305,-0.3051,-0.3118,-0.3116,-0.3114,-0.3066,-0.3023,-0.3031,-0.3042,-0.3065,-0.3044,-0.3045,-0.3026,-0.3021,-0.3001,-0.2958,-0.2957,-0.2987,-0.2986,-0.2985,-0.2984,0,0,0,0,0,0,0,-0.3051,-0.3053,-0.3102,-0.3117,-0.3115,-0.3049,-0.305,-0.3023,-0.3039,-0.3063,-0.3063,-0.3061,-0.3024,-0.3004,-0.3,-0.2956,-0.2988,-0.2985,-0.2984,-0.2982,-0.288,-0.2879,0,0,0,0,0,0,-0.3075,-0.3055,-0.3104,-0.31,-0.3087,-0.3051,-0.3051,-0.3078,-0.3039,-0.3034,-0.306,-0.306,-0.3008,-0.3003,-0.2999,-0.2973,-0.2985,-0.2982,-0.2981,-0.2881,-0.288,-0.2878,0,0,0,0,0,0,-0.3074,-0.3081,-0.3107,-0.3076,-0.3076,-0.3053,-0.3081,-0.3076,-0.3067,-0.3036,-0.3032,-0.3058,-0.3008,-0.3002,-0.2972,-0.2971,-0.2981,-0.2979,-0.2882,-0.288,-0.2879,-0.2911,0,0,0,0,0,0,-0.3073,-0.3082,-0.31,-0.308,-0.3079,-0.3103,-0.308,-0.3074,-0.3065,-0.3065,-0.3033,-0.3029,-0.3009,-0.2976,-0.297,-0.2967,-0.2977,-0.2884,-0.2881,-0.2879,-0.2911,-0.291,-0.2909,0,0,0,0,0,-0.3071,-0.3113,-0.3103,-0.3108,-0.311,-0.3104,-0.3097,-0.3079,-0.3065,-0.3071,-0.3031,-0.3031,-0.2958,-0.2973,-0.2966,-0.2963,-0.2885,-0.2882,-0.288,-0.2911,-0.291,-0.2909,0,0,0,0,0,0,-0.3087,-0.3114,-0.3103,-0.3149,-0.3132,-0.3102,-0.3106,-0.3083,-0.3054,-0.3056,-0.3015,-0.3008,-0.2983,-0.2961,-0.2978,-0.2923,-0.2921,-0.2917,-0.2948,-0.2947,-0.2946,-0.297,-0.2974,0,0,0,0,0,-0.3099,-0.314,-0.3134,-0.3163,-0.3164,-0.3129,-0.3121,-0.3112,-0.3085,-0.3074,-0.3042,-0.3003,-0.2962,-0.2947,-0.2917,-0.2886,-0.2903,-0.2877,-0.2876,-0.2876,-0.2888,-0.2868,-0.2868,-0.287,-0.287,-0.287,0,0,-0.3107,-0.3129,-0.3147,-0.3168,-0.3153,-0.3157,-0.3127,-0.3134,-0.3122,-0.3073,-0.3048,-0.3006,-0.2952,-0.2919,-0.2905,-0.2904,-0.2896,-0.2873,-0.2873,-0.2885,-0.2865,-0.2865,-0.2866,-0.2868,-0.2869,-0.2869,0,0,-0.3141,-0.3169,-0.3205,-0.3205,-0.3205,-0.3187,-0.3194,-0.317,-0.3149,-0.3116,-0.3069,-0.3021,-0.2971,-0.2922,-0.2891,-0.2864,-0.2893,-0.2858,-0.2875,-0.2855,-0.2856,-0.2856,-0.294,-0.2947,-0.2857,-0.2857,-0.2857,0,-0.314,-0.3188,-0.3206,-0.3232,-0.3225,-0.3206,-0.3214,-0.3194,-0.3156,-0.313,-0.3122,-0.3014,-0.2968,-0.2905,-0.289,-0.2865,-0.2897,-0.2887,-0.2858,-0.2858,-0.2858,-0.2942,-0.295,-0.2858,-0.2858,-0.2858,-0.2857,0,-0.3188,-0.322,-0.3241,-0.3268,-0.3268,-0.3277,-0.3258,-0.3247,-0.3214,-0.3179,-0.312,-0.3047,-0.2985,-0.2953,-0.2911,-0.2875,-0.2919,-0.2865,-0.287,-0.2861,-0.295,-0.2958,-0.286,-0.2859,-0.2859,-0.2858,0,0,-0.3192,-0.3258,-0.3261,-0.3266,-0.3285,-0.3284,-0.3283,-0.3254,-0.3255,-0.3195,-0.3171,-0.3062,-0.3029,-0.299,-0.293,-0.29,-0.2931,-0.2888,-0.2887,-0.2992,-0.2979,-0.3168,-0.3195,-0.2875,-0.2875,-0.2875,-0.3066,0,-0.3202,-0.3248,-0.3282,-0.3299,-0.3307,-0.3305,-0.3309,-0.3289,-0.3267,-0.3252,-0.3159,-0.3121,-0.3043,-0.302,-0.2973,-0.2934,-0.2943,-0.289,-0.2954,-0.2958,-0.3142,-0.3205,-0.3338,-0.3531,-0.3073,-0.3075,-0.3076,0,-0.3222,-0.3245,-0.3265,-0.3303,-0.3309,-0.3318,-0.3318,-0.332,-0.3306,-0.3293,-0.3243,-0.3206,-0.3142,-0.308,-0.3039,-0.3017,-0.3009,-0.2987,-0.2992,-0.3161,-0.3159,-0.3451,-0.3563,-0.3604,-0.3088,-0.3087,-0.3086,0,-0.318,-0.3233,-0.3238,-0.3247,-0.329,-0.3289,-0.3301,-0.3312,-0.3341,-0.3318,-0.3364,-0.3276,-0.3273,-0.3203,-0.3179,-0.3108,-0.319,-0.3078,-0.3258,-0.3275,-0.3399,-0.3427,-0.3572,-0.3072,-0.3071,-0.3071,-0.307,0,-0.3166,-0.3174,-0.3216,-0.3216,-0.3248,-0.3265,-0.3309,-0.3321,-0.3368,-0.3447,-0.3377,-0.3446,-0.33,-0.3338,-0.326,-0.3348,-0.3262,-0.3312,-0.3333,-0.3422,-0.3449,-0.3495,-0.3471,-0.3078,-0.3077,-0.3075,-0.3074,0,-0.3127,-0.3149,-0.3175,-0.3214,-0.3233,-0.3247,-0.3348,-0.3399,-0.3436,-0.3548,-0.3556,-0.3592,-0.3654,-0.3594,-0.3545,-0.3517,-0.3567,-0.3573,-0.3756,-0.3796,-0.3977,-0.3949,-0.4,-0.3965,-0.3796,-0.3801,-0.3806,0,-0.3118,-0.3119,-0.3181,-0.3204,-0.3222,-0.3266,-0.3332,-0.3409,-0.3495,-0.3666,-0.3738,-0.3844,-0.3971,-0.4037,-0.4012,-0.4026,-0.3841,-0.412,-0.3972,-0.4072,-0.4052,-0.3871,-0.3819,-0.417,-0.4177,-0.4183,-0.4188,0,-0.308,-0.3098,-0.3104,-0.3179,-0.3237,-0.3338,-0.3432,-0.3536,-0.3672,-0.3822,-0.405,-0.4174,-0.4346,-0.4484,-0.4521,-0.4448,-0.4152,-0.425,-0.4258,-0.4318,-0.4218,-0.417,-0.4019,-0.4243,-0.4237,-0.4233,-0.423,-0.4228,-0.3033,-0.3045,-0.3056,-0.3121,-0.3222,-0.3359,-0.3378,-0.3581,-0.3769,-0.3995,-0.4241,-0.4493,-0.4774,-0.4879,-0.4868,-0.4909,-0.4611,-0.4768,-0.4725,-0.453,-0.4499,-0.4549,-0.4838,-0.4836,-0.4834,-0.4833,-0.4832,0,-0.295,-0.2953,-0.3004,-0.3063,-0.3138,-0.3222,-0.3397,-0.3406,-0.3609,-0.4035,-0.4298,-0.4894,-0.517,-0.5306,-0.5504,-0.542,-0.5153,-0.5237,-0.4978,-0.4891,-0.4905,-0.4928,-0.5364,-0.5364,-0.5364,-0.5364,-0.5364,-0.5364,-0.2875,-0.2855,-0.2885,-0.2928,-0.298,-0.2974,-0.3025,-0.3128,-0.3347,-0.3809,-0.4288,-0.4662,-0.4974,-0.5774,-0.588,-0.5688,-0.5447,-0.5361,-0.5184,-0.5216,-0.5164,-0.5115,-0.513,-0.5602,-0.5602,-0.5109,-0.5106,-0.5104]},{"header":{"parameterUnit":"m.s-1","parameterCategory":2,"la1":30.2991,"la2":30.254,"lo1":-89.0895,"lo2":-89.0444,"dy":0.0017,"dx":0.0017,"nx":28,"ny":28,"refTime":"2024-05-17T03:00:00:Z","depth":"0","parameterNumber":3,"parameterNumberName":"V-component_of_CURRENTS"},"data":[0,0,0,0,0,0,0,0,0,0,0,0,0,0,0,0,0,0,0,0,0,0,0,0,0,0,0,0,0,0,0,0,0,0,0,0,0,0,0,0,0,0,0,0,0,0,0,0,0,0,0,0,0,0,0,0,0,0,-0.0227,-0.0226,0,-0.0101,-0.0099,-0.0098,-0.0023,-0.0023,-0.0023,-0.0023,0.0127,0.0131,0.0135,0,0,0,0,0,0,0,0,0,0,0,0,0,-0.0327,-0.0326,-0.0227,-0.0226,-0.0225,-0.0101,-0.0099,-0.0097,-0.0023,-0.0023,-0.0023,-0.0023,0.0126,0.013,0.0135,0,0,0,0,0,0,0,0,0,0,0,0,0,-0.0247,-0.0325,-0.0227,-0.0176,-0.017,-0.0102,-0.0099,-0.0097,-0.0023,-0.0023,-0.0023,-0.0023,0.0124,0.013,0.0136,0.0174,0,0,0.0154,0.0157,0,0,0,0,0,0,0,0,-0.0252,-0.0243,-0.0185,-0.0179,-0.0173,-0.0081,-0.008,-0.0006,-0.0023,-0.0074,-0.0023,-0.0023,0.0057,0.0068,0.0098,0.0181,0.0188,0.0155,0.0158,0.0161,0.0163,0,0,0,0,0,0,0,-0.0258,-0.0248,-0.0173,-0.0183,-0.0176,-0.0133,-0.0122,-0.0065,-0.0006,-0.007,-0.0065,-0.0058,0.0061,0.0092,0.0102,0.019,0.0155,0.016,0.0164,0.0166,0.0325,0.0326,0,0,0,0,0,0,-0.0285,-0.0253,-0.0177,-0.017,-0.0218,-0.0132,-0.0119,-0.0107,-0.0007,0.0006,-0.0058,-0.0055,0.0081,0.0095,0.0107,0.0175,0.0161,0.0167,0.017,0.0325,0.0325,0.0326,0,0,0,0,0,0,-0.0287,-0.0279,-0.0182,-0.0212,-0.0197,-0.0131,-0.0118,-0.0105,-0.007,0.0001,0.0016,-0.0036,0.0082,0.0099,0.0162,0.0181,0.0169,0.0175,0.0324,0.0325,0.0326,0.0301,0,0,0,0,0,0,-0.0291,-0.0281,-0.0282,-0.0214,-0.0197,-0.0143,-0.0117,-0.0102,-0.0067,-0.0062,0.0024,0.0038,0.0083,0.0152,0.0168,0.0189,0.018,0.0323,0.0324,0.0325,0.0301,0.0301,0.0301,0,0,0,0,0,-0.0295,-0.0296,-0.0283,-0.0274,-0.0201,-0.0143,-0.0129,-0.008,-0.0067,-0.0048,0.0008,0.0036,0.017,0.0158,0.0176,0.0199,0.0323,0.0324,0.0325,0.0301,0.0301,0.0301,0,0,0,0,0,0,-0.0346,-0.0287,-0.0271,-0.0257,-0.0207,-0.0132,-0.0115,-0.0081,-0.0021,-0.0013,0.0049,0.0068,0.0132,0.0165,0.015,0.0247,0.0249,0.0254,0.0224,0.0225,0.0225,0.023,0.0185,0,0,0,0,0,-0.0359,-0.0342,-0.028,-0.027,-0.0246,-0.0181,-0.0153,-0.0114,-0.0055,-0.0028,0.0031,0.0092,0.0152,0.0185,0.0244,0.0298,0.0329,0.0322,0.0322,0.0322,0.0337,0.0383,0.0388,0.033,0.033,0.033,0,0,-0.0383,-0.0345,-0.0339,-0.028,-0.0236,-0.0191,-0.0162,-0.0116,-0.007,-0.0021,0.0054,0.0098,0.0166,0.023,0.026,0.026,0.0354,0.0323,0.0323,0.0339,0.0385,0.0391,0.0396,0.0331,0.0331,0.0331,0,0,-0.0408,-0.038,-0.0368,-0.032,-0.0255,-0.0205,-0.0194,-0.0114,-0.007,-0.0001,0.0046,0.0104,0.019,0.0249,0.0287,0.0322,0.0353,0.0329,0.0336,0.038,0.0385,0.039,0.0432,0.0441,0.0327,0.0327,0.0327,0,-0.0442,-0.0412,-0.0358,-0.0321,-0.0286,-0.0213,-0.0183,-0.0117,-0.0026,0.0009,0.0017,0.0153,0.0208,0.0293,0.0305,0.0326,0.0346,0.0329,0.0379,0.0385,0.039,0.0433,0.0443,0.0326,0.0326,0.0326,0.0326,0,-0.0446,-0.0417,-0.0403,-0.0331,-0.0283,-0.0246,-0.0153,-0.0097,-0.0045,0.0015,0.0103,0.0178,0.0252,0.0277,0.0308,0.0375,0.0375,0.0372,0.0376,0.0395,0.0438,0.0449,0.0324,0.0325,0.0325,0.0325,0,0,-0.0539,-0.0432,-0.0429,-0.0402,-0.0285,-0.0256,-0.0163,-0.0074,-0.0031,0.0063,0.0121,0.0232,0.026,0.0305,0.0348,0.0395,0.0452,0.0394,0.0397,0.0432,0.0542,0.0653,0.0676,0.0443,0.0445,0.0447,0.0555,0,-0.0564,-0.0528,-0.0444,-0.0399,-0.0375,-0.0262,-0.0194,-0.0099,-0.0013,0.0064,0.0165,0.0231,0.0275,0.0294,0.0357,0.0433,0.048,0.0423,0.0525,0.0529,0.0621,0.0693,0.0831,0.0949,0.0566,0.0568,0.0569,0,-0.0595,-0.0568,-0.054,-0.0451,-0.043,-0.0382,-0.0276,-0.0203,-0.0056,0.0007,0.0111,0.0191,0.0309,0.0315,0.0477,0.0431,0.0487,0.0541,0.0546,0.0672,0.0663,0.0871,0.0984,0.1275,0.0586,0.0585,0.0584,0,-0.0714,-0.0633,-0.0625,-0.059,-0.0474,-0.0439,-0.0379,-0.024,-0.0188,-0.0038,0.0013,0.017,0.024,0.0349,0.0507,0.0475,0.0673,0.0637,0.0794,0.0801,0.0956,0.0976,0.1366,0.0734,0.0733,0.0733,0.0733,0,-0.0772,-0.0768,-0.069,-0.0683,-0.0687,-0.0557,-0.0527,-0.0433,-0.0302,-0.0243,-0.0048,0.0043,0.0247,0.0403,0.0511,0.0727,0.0683,0.0832,0.0854,0.0952,0.0969,0.1257,0.1355,0.0737,0.0736,0.0735,0.0735,0,-0.0892,-0.0832,-0.084,-0.076,-0.0742,-0.0758,-0.0658,-0.0646,-0.0474,-0.0385,-0.0341,-0.0057,0.0185,0.0408,0.0616,0.0745,0.1074,0.0984,0.1099,0.1136,0.1554,0.1641,0.1941,0.196,0.1181,0.1185,0.1188,0,-0.0941,-0.0961,-0.0947,-0.0988,-0.0957,-0.0945,-0.0951,-0.0785,-0.0743,-0.0441,-0.0418,-0.0108,0.0148,0.0566,0.0867,0.1148,0.1237,0.1381,0.1363,0.1653,0.1765,0.1745,0.1731,0.1546,0.1552,0.1557,0.1561,0,-0.1059,-0.1069,-0.1089,-0.1189,-0.1223,-0.1248,-0.1211,-0.1181,-0.0956,-0.0794,-0.0514,-0.025,0.0304,0.0826,0.1252,0.1361,0.1598,0.1486,0.1769,0.21,0.2123,0.2125,0.1386,0.1603,0.1599,0.1595,0.1593,0.1591,-0.1167,-0.1251,-0.1311,-0.1413,-0.1482,-0.155,-0.1565,-0.1448,-0.1331,-0.0993,-0.0637,-0.0085,0.0817,0.1508,0.1656,0.2164,0.1937,0.2286,0.2367,0.2317,0.2373,0.1739,0.1989,0.1987,0.1986,0.1984,0.1983,0,-0.131,-0.1413,-0.1532,-0.1667,-0.1823,-0.1773,-0.1754,-0.1719,-0.1578,-0.103,-0.0629,0.0646,0.1451,0.2147,0.2982,0.3152,0.2968,0.3158,0.3203,0.3131,0.2609,0.267,0.3104,0.3104,0.3103,0.3103,0.3103,0.3102,-0.1393,-0.1564,-0.1651,-0.1961,-0.2061,-0.2203,-0.2199,-0.2046,-0.1666,-0.0806,0.0084,0.0805,0.2095,0.3668,0.4301,0.4125,0.4119,0.4026,0.3973,0.3735,0.3659,0.3587,0.3676,0.4313,0.4314,0.4433,0.4436,0.4439]}],[{"header":{"parameterUnit":"m.s-1","parameterCategory":2,"la1":30.2991,"la2":30.254,"lo1":-89.0895,"lo2":-89.0444,"dy":0.0017,"dx":0.0017,"nx":28,"ny":28,"refTime":"2024-05-17T03:00:00:Z","depth":"2","parameterNumber":2,"parameterNumberName":"U-component_of_CURRENTS"},"data":[0,0,0,0,0,0,0,0,0,0,0,0,0,0,0,0,0,0,0,0,0,0,0,0,0,0,0,0,0,0,0,0,0,0,0,0,0,0,0,0,0,0,0,0,0,0,0,0,0,0,0,0,0,0,0,0,0,0,-0.3095,-0.3095,0,-0.3029,-0.3028,-0.3027,-0.3007,-0.3008,-0.3008,-0.3009,-0.2964,-0.2963,-0.2961,0,0,0,0,0,0,0,0,0,0,0,0,0,-0.3024,-0.3026,-0.3095,-0.3095,-0.3094,-0.303,-0.3028,-0.3027,-0.3007,-0.3008,-0.3008,-0.3009,-0.2965,-0.2963,-0.2961,0,0,0,0,0,0,0,0,0,0,0,0,0,-0.3013,-0.3027,-0.3096,-0.3079,-0.3077,-0.303,-0.3028,-0.3027,-0.3007,-0.3008,-0.3009,-0.3009,-0.2966,-0.2963,-0.296,-0.2925,0,0,-0.2952,-0.2951,0,0,0,0,0,0,0,0,-0.3014,-0.3015,-0.3082,-0.308,-0.3078,-0.303,-0.2987,-0.2995,-0.3006,-0.303,-0.3009,-0.301,-0.299,-0.2985,-0.2966,-0.2923,-0.2921,-0.2952,-0.295,-0.2949,-0.2949,0,0,0,0,0,0,0,-0.3015,-0.3017,-0.3066,-0.3081,-0.3079,-0.3013,-0.3014,-0.2987,-0.3003,-0.3028,-0.3027,-0.3025,-0.2989,-0.2968,-0.2965,-0.292,-0.2952,-0.295,-0.2948,-0.2947,-0.2844,-0.2843,0,0,0,0,0,0,-0.3039,-0.3019,-0.3068,-0.3064,-0.3052,-0.3015,-0.3016,-0.3042,-0.3003,-0.2999,-0.3024,-0.3024,-0.2972,-0.2968,-0.2963,-0.2938,-0.2949,-0.2947,-0.2945,-0.2845,-0.2844,-0.2843,0,0,0,0,0,0,-0.3038,-0.3045,-0.3071,-0.304,-0.304,-0.3017,-0.3045,-0.304,-0.3031,-0.3,-0.2996,-0.3023,-0.2973,-0.2967,-0.2937,-0.2936,-0.2946,-0.2943,-0.2847,-0.2845,-0.2843,-0.2875,0,0,0,0,0,0,-0.3037,-0.3046,-0.3065,-0.3044,-0.3043,-0.3067,-0.3045,-0.3038,-0.303,-0.3029,-0.2998,-0.2994,-0.2973,-0.2941,-0.2934,-0.2932,-0.2941,-0.2848,-0.2846,-0.2844,-0.2876,-0.2875,-0.2874,0,0,0,0,0,-0.3035,-0.3077,-0.3067,-0.3072,-0.3074,-0.3068,-0.3061,-0.3043,-0.3029,-0.3035,-0.2996,-0.2995,-0.2923,-0.2938,-0.293,-0.2927,-0.2849,-0.2847,-0.2844,-0.2876,-0.2875,-0.2874,0,0,0,0,0,0,-0.3051,-0.3078,-0.3067,-0.3113,-0.3096,-0.3066,-0.307,-0.3048,-0.3018,-0.3021,-0.298,-0.2973,-0.2948,-0.2925,-0.2943,-0.2888,-0.2886,-0.2882,-0.2913,-0.2912,-0.2911,-0.2935,-0.2939,0,0,0,0,0,-0.3064,-0.3104,-0.3098,-0.3127,-0.3129,-0.3094,-0.3085,-0.3076,-0.305,-0.3038,-0.3007,-0.2968,-0.2926,-0.2912,-0.2881,-0.2851,-0.2867,-0.2842,-0.2841,-0.2841,-0.2852,-0.2832,-0.2832,-0.2835,-0.2835,-0.2835,0,0,-0.3072,-0.3093,-0.3111,-0.3132,-0.3117,-0.3122,-0.3092,-0.3098,-0.3086,-0.3038,-0.3012,-0.2971,-0.2917,-0.2884,-0.287,-0.2869,-0.286,-0.2838,-0.2838,-0.285,-0.283,-0.283,-0.283,-0.2833,-0.2833,-0.2833,0,0,-0.3105,-0.3133,-0.317,-0.3169,-0.317,-0.3152,-0.3158,-0.3134,-0.3114,-0.3081,-0.3034,-0.2986,-0.2936,-0.2887,-0.2856,-0.2829,-0.2858,-0.2824,-0.2841,-0.2821,-0.2821,-0.2822,-0.2904,-0.2912,-0.2822,-0.2822,-0.2822,0,-0.3105,-0.3153,-0.3171,-0.3197,-0.319,-0.3171,-0.3178,-0.3158,-0.312,-0.3094,-0.3087,-0.2979,-0.2933,-0.287,-0.2855,-0.283,-0.2863,-0.2852,-0.2823,-0.2823,-0.2823,-0.2907,-0.2915,-0.2823,-0.2823,-0.2823,-0.2823,0,-0.3152,-0.3184,-0.3206,-0.3233,-0.3233,-0.3241,-0.3222,-0.3212,-0.3179,-0.3144,-0.3085,-0.3012,-0.295,-0.2918,-0.2876,-0.2841,-0.2884,-0.283,-0.2835,-0.2826,-0.2915,-0.2923,-0.2825,-0.2825,-0.2824,-0.2824,0,0,-0.3157,-0.3222,-0.3226,-0.3231,-0.3249,-0.3248,-0.3247,-0.3217,-0.3219,-0.316,-0.3135,-0.3026,-0.2994,-0.2955,-0.2895,-0.2865,-0.2896,-0.2854,-0.2852,-0.2958,-0.2943,-0.3131,-0.3158,-0.2841,-0.284,-0.284,-0.3031,0,-0.3167,-0.3212,-0.3246,-0.3263,-0.327,-0.3269,-0.3272,-0.3253,-0.3231,-0.3215,-0.3122,-0.3085,-0.3007,-0.2985,-0.2938,-0.2899,-0.2908,-0.2856,-0.2919,-0.2923,-0.3105,-0.3168,-0.2714,-0.2857,-0.3038,-0.3039,-0.304,0,-0.3187,-0.321,-0.3229,-0.3266,-0.3272,-0.3281,-0.3281,-0.3283,-0.3268,-0.3256,-0.3206,-0.317,-0.3106,-0.3045,-0.3004,-0.2982,-0.2974,-0.2952,-0.2957,-0.3124,-0.3122,-0.2879,-0.2864,-0.3053,-0.3052,-0.3051,-0.305,0,-0.3145,-0.3197,-0.3201,-0.321,-0.3253,-0.3252,-0.3264,-0.3274,-0.3304,-0.3281,-0.3326,-0.3238,-0.3236,-0.3166,-0.3143,-0.3073,-0.3154,-0.3042,-0.3221,-0.3237,-0.2861,-0.2847,-0.3036,-0.3036,-0.3035,-0.3035,-0.3034,0,-0.3131,-0.3138,-0.318,-0.318,-0.3211,-0.3228,-0.3271,-0.3284,-0.3331,-0.3409,-0.334,-0.3409,-0.3264,-0.33,-0.3223,-0.331,-0.3225,-0.3274,-0.3295,-0.2872,-0.2857,-0.3005,-0.2999,-0.3042,-0.304,-0.3039,-0.3038,0,-0.3091,-0.3113,-0.3139,-0.3177,-0.3196,-0.321,-0.3311,-0.3361,-0.3398,-0.3509,-0.3518,-0.3554,-0.3615,-0.3556,-0.3506,-0.3479,-0.3484,-0.3533,-0.313,-0.3104,-0.3563,-0.3556,-0.3739,-0.3747,-0.3754,-0.376,-0.3765,0,-0.3083,-0.3083,-0.3144,-0.3167,-0.3185,-0.3229,-0.3295,-0.3371,-0.3457,-0.3627,-0.3698,-0.3804,-0.3897,-0.3963,-0.3763,-0.3726,-0.3757,-0.3467,-0.3239,-0.3633,-0.3633,-0.3615,-0.3599,-0.2746,-0.2742,-0.2739,-0.2737,0,-0.3044,-0.3063,-0.3068,-0.3142,-0.32,-0.33,-0.3394,-0.3496,-0.3632,-0.3749,-0.3975,-0.4066,-0.4076,-0.3828,-0.3796,-0.3678,-0.3425,-0.3425,-0.3847,-0.2713,-0.2731,-0.2723,-0.273,-0.2708,-0.2711,-0.2713,-0.2715,-0.2716,-0.2998,-0.3009,-0.302,-0.3084,-0.3184,-0.332,-0.3339,-0.3424,-0.3566,-0.3576,-0.3947,-0.3856,-0.3812,-0.3472,-0.3388,-0.3221,-0.3426,-0.3237,-0.3227,-0.3226,-0.3151,-0.3187,-0.3241,-0.3246,-0.3251,-0.3255,-0.3259,0,-0.2843,-0.2917,-0.2967,-0.3026,-0.303,-0.3184,-0.3357,-0.3207,-0.3219,-0.3307,-0.3373,-0.3076,-0.2995,-0.2958,-0.2625,-0.2716,-0.2433,-0.2677,-0.2221,-0.2254,-0.2281,-0.214,-0.1971,-0.1968,-0.1965,-0.1963,0,0,-0.2749,-0.2699,-0.2727,-0.2744,-0.2857,-0.2752,-0.28,-0.2633,-0.254,-0.237,-0.2302,-0.2533,-0.2765,-0.2272,-0.2246,-0.2066,-0.2093,-0.195,-0.2956,-0.2434,-0.2457,-0.2574,-0.2397,0,0,0,0,0]},{"header":{"parameterUnit":"m.s-1","parameterCategory":2,"la1":30.2991,"la2":30.254,"lo1":-89.0895,"lo2":-89.0444,"dy":0.0017,"dx":0.0017,"nx":28,"ny":28,"refTime":"2024-05-17T03:00:00:Z","depth":"2","parameterNumber":3,"parameterNumberName":"V-component_of_CURRENTS"},"data":[0,0,0,0,0,0,0,0,0,0,0,0,0,0,0,0,0,0,0,0,0,0,0,0,0,0,0,0,0,0,0,0,0,0,0,0,0,0,0,0,0,0,0,0,0,0,0,0,0,0,0,0,0,0,0,0,0,0,-0.0234,-0.0233,0,-0.0109,-0.0107,-0.0105,-0.003,-0.003,-0.003,-0.003,0.0119,0.0123,0.0127,0,0,0,0,0,0,0,0,0,0,0,0,0,-0.0334,-0.0333,-0.0235,-0.0233,-0.0232,-0.0109,-0.0107,-0.0105,-0.003,-0.003,-0.003,-0.003,0.0118,0.0123,0.0127,0,0,0,0,0,0,0,0,0,0,0,0,0,-0.0254,-0.0332,-0.0235,-0.0183,-0.0178,-0.0109,-0.0107,-0.0104,-0.003,-0.003,-0.003,-0.003,0.0116,0.0122,0.0128,0.0166,0,0,0.0147,0.0149,0,0,0,0,0,0,0,0,-0.0259,-0.025,-0.0192,-0.0187,-0.018,-0.0089,-0.0087,-0.0014,-0.003,-0.0082,-0.003,-0.003,0.0049,0.0061,0.009,0.0173,0.018,0.0147,0.0151,0.0153,0.0155,0,0,0,0,0,0,0,-0.0265,-0.0255,-0.0181,-0.0191,-0.0184,-0.014,-0.0129,-0.0072,-0.0014,-0.0077,-0.0073,-0.0065,0.0053,0.0084,0.0094,0.0182,0.0147,0.0152,0.0156,0.0158,0.0317,0.0318,0,0,0,0,0,0,-0.0292,-0.026,-0.0185,-0.0177,-0.0225,-0.0139,-0.0127,-0.0115,-0.0015,-0.0001,-0.0065,-0.0062,0.0074,0.0087,0.01,0.0168,0.0153,0.0159,0.0162,0.0317,0.0317,0.0318,0,0,0,0,0,0,-0.0295,-0.0286,-0.019,-0.0219,-0.0205,-0.0139,-0.0125,-0.0112,-0.0077,-0.0007,0.0008,-0.0044,0.0074,0.0091,0.0154,0.0173,0.0162,0.0167,0.0316,0.0317,0.0318,0.0293,0,0,0,0,0,0,-0.0298,-0.0288,-0.0289,-0.0221,-0.0204,-0.015,-0.0125,-0.011,-0.0075,-0.0069,0.0017,0.0031,0.0076,0.0145,0.016,0.0181,0.0172,0.0315,0.0316,0.0317,0.0293,0.0293,0.0293,0,0,0,0,0,-0.0302,-0.0303,-0.029,-0.0281,-0.0208,-0.0151,-0.0137,-0.0087,-0.0074,-0.0056,0.0,0.0028,0.0162,0.015,0.0168,0.0192,0.0315,0.0316,0.0317,0.0293,0.0293,0.0293,0,0,0,0,0,0,-0.0352,-0.0294,-0.0278,-0.0264,-0.0214,-0.014,-0.0122,-0.0089,-0.0028,-0.0021,0.0042,0.006,0.0124,0.0158,0.0142,0.0239,0.0241,0.0246,0.0217,0.0217,0.0217,0.0222,0.0177,0,0,0,0,0,-0.0366,-0.0349,-0.0287,-0.0277,-0.0254,-0.0188,-0.016,-0.0122,-0.0062,-0.0035,0.0024,0.0084,0.0144,0.0178,0.0236,0.029,0.0321,0.0314,0.0314,0.0314,0.0329,0.0375,0.038,0.0323,0.0323,0.0323,0,0,-0.039,-0.0352,-0.0346,-0.0287,-0.0243,-0.0199,-0.017,-0.0124,-0.0077,-0.0028,0.0046,0.0091,0.0158,0.0222,0.0252,0.0252,0.0346,0.0315,0.0315,0.0331,0.0377,0.0383,0.0388,0.0323,0.0323,0.0323,0,0,-0.0415,-0.0387,-0.0375,-0.0327,-0.0263,-0.0212,-0.0202,-0.0122,-0.0078,-0.0009,0.0039,0.0096,0.0182,0.0241,0.0279,0.0314,0.0345,0.0321,0.0328,0.0372,0.0377,0.0382,0.0424,0.0434,0.0319,0.0319,0.0319,0,-0.0449,-0.0419,-0.0365,-0.0328,-0.0293,-0.0221,-0.019,-0.0125,-0.0034,0.0002,0.001,0.0145,0.02,0.0285,0.0297,0.0318,0.0338,0.0321,0.0371,0.0377,0.0382,0.0425,0.0435,0.0318,0.0318,0.0318,0.0318,0,-0.0453,-0.0424,-0.041,-0.0339,-0.029,-0.0253,-0.016,-0.0105,-0.0053,0.0007,0.0095,0.017,0.0244,0.0269,0.03,0.0367,0.0367,0.0364,0.0368,0.0387,0.043,0.0442,0.0316,0.0317,0.0317,0.0317,0,0,-0.0546,-0.0439,-0.0436,-0.041,-0.0293,-0.0264,-0.0171,-0.0082,-0.0039,0.0055,0.0113,0.0224,0.0252,0.0297,0.034,0.0386,0.0444,0.0386,0.0389,0.0424,0.0534,0.0644,0.0667,0.0436,0.0437,0.0439,0.0547,0,-0.0571,-0.0536,-0.0452,-0.0407,-0.0383,-0.027,-0.0202,-0.0107,-0.0021,0.0056,0.0157,0.0223,0.0267,0.0286,0.0349,0.0425,0.0472,0.0415,0.0517,0.0521,0.0612,0.0684,0.0482,0.0571,0.0558,0.056,0.0561,0,-0.0602,-0.0575,-0.0547,-0.0459,-0.0437,-0.039,-0.0284,-0.0211,-0.0064,-0.0001,0.0103,0.0183,0.0301,0.0307,0.0469,0.0423,0.048,0.0533,0.0538,0.0663,0.0653,0.0554,0.0592,0.058,0.0579,0.0577,0.0576,0,-0.0721,-0.064,-0.0632,-0.0597,-0.0481,-0.0446,-0.0386,-0.0247,-0.0195,-0.0045,0.0005,0.0162,0.0232,0.0341,0.0499,0.0467,0.0665,0.0629,0.0785,0.0792,0.0659,0.0653,0.0726,0.0726,0.0726,0.0725,0.0725,0,-0.0779,-0.0774,-0.0697,-0.069,-0.0694,-0.0564,-0.0534,-0.044,-0.0309,-0.025,-0.0056,0.0036,0.0239,0.0395,0.0503,0.0718,0.0675,0.0823,0.0845,0.0647,0.0639,0.0672,0.0665,0.073,0.0729,0.0728,0.0727,0,-0.0899,-0.0839,-0.0846,-0.0767,-0.0749,-0.0764,-0.0665,-0.0652,-0.0481,-0.0391,-0.0347,-0.0064,0.0177,0.0399,0.0608,0.0736,0.0907,0.0974,0.075,0.0749,0.0993,0.0982,0.116,0.1165,0.117,0.1173,0.1177,0,-0.0947,-0.0967,-0.0953,-0.0993,-0.0963,-0.0951,-0.0957,-0.079,-0.0749,-0.0447,-0.0425,-0.0116,0.0125,0.0542,0.074,0.0991,0.1027,0.1017,0.0952,0.1043,0.1046,0.1028,0.1012,0.0736,0.0735,0.0734,0.0734,0,-0.1065,-0.1074,-0.1094,-0.1194,-0.1228,-0.1252,-0.1216,-0.1186,-0.0962,-0.0806,-0.0528,-0.028,0.0171,0.0458,0.0842,0.0937,0.0975,0.1021,0.1154,0.0697,0.0664,0.066,0.0653,0.0728,0.0729,0.0729,0.073,0.073,-0.1173,-0.1256,-0.1316,-0.1417,-0.1485,-0.1553,-0.1569,-0.1466,-0.1358,-0.1095,-0.0751,-0.0391,0.0045,0.05,0.0788,0.0985,0.0998,0.1025,0.1016,0.101,0.0983,0.0963,0.1077,0.1079,0.1082,0.1083,0.1085,0,-0.1303,-0.1417,-0.1536,-0.167,-0.1805,-0.1776,-0.1757,-0.1716,-0.1599,-0.1309,-0.1003,-0.0545,-0.0115,0.0334,0.0616,0.0918,0.0792,0.0981,0.075,0.0751,0.0754,0.0706,0.0731,0.0732,0.0733,0.0734,0,0,-0.1383,-0.1545,-0.1631,-0.1924,-0.2036,-0.2147,-0.2143,-0.2026,-0.1822,-0.1531,-0.1262,-0.0849,-0.0196,-0.0017,0.0344,0.0535,0.0541,0.0511,0.0736,0.0409,0.0409,0.0702,0.0623,0,0,0,0,0]}],[{"header":{"parameterUnit":"m.s-1","parameterCategory":2,"la1":30.2991,"la2":30.254,"lo1":-89.0895,"lo2":-89.0444,"dy":0.0017,"dx":0.0017,"nx":28,"ny":28,"refTime":"2024-05-17T03:00:00:Z","depth":"4","parameterNumber":2,"parameterNumberName":"U-component_of_CURRENTS"},"data":[0,0,0,0,0,0,0,0,0,0,0,0,0,0,0,0,0,0,0,0,0,0,0,0,0,0,0,0,0,0,0,0,0,0,0,0,0,0,0,0,0,0,0,0,0,0,0,0,0,0,0,0,0,0,0,0,0,0,-0.096,-0.0961,0,-0.1025,-0.1025,-0.1026,-0.1078,-0.1079,-0.108,-0.108,-0.1114,-0.1114,-0.1114,0,0,0,0,0,0,0,0,0,0,0,0,0,-0.0866,-0.0868,-0.096,-0.0961,-0.0962,-0.1025,-0.1025,-0.1026,-0.1078,-0.1079,-0.108,-0.1081,-0.1114,-0.1114,-0.1114,0,0,0,0,0,0,0,0,0,0,0,0,0,-0.0914,-0.0868,-0.096,-0.0998,-0.1002,-0.1025,-0.1025,-0.1026,-0.1078,-0.1079,-0.108,-0.1081,-0.1114,-0.1114,-0.1114,-0.1093,0,0,-0.1115,-0.1115,0,0,0,0,0,0,0,0,-0.0912,-0.0917,-0.0991,-0.0995,-0.1,-0.1047,-0.1005,-0.1048,-0.1077,-0.1046,-0.108,-0.1082,-0.1089,-0.1092,-0.1098,-0.1095,-0.1096,-0.1115,-0.1115,-0.1115,-0.1115,0,0,0,0,0,0,0,-0.0908,-0.0915,-0.0983,-0.0992,-0.0998,-0.1006,-0.1014,-0.1013,-0.1058,-0.1049,-0.1054,-0.1064,-0.1091,-0.1098,-0.1099,-0.1097,-0.1115,-0.1115,-0.1115,-0.1116,-0.1122,-0.1122,0,0,0,0,0,0,-0.0905,-0.0912,-0.0981,-0.0986,-0.096,-0.1007,-0.1016,-0.1029,-0.1059,-0.1066,-0.1063,-0.1067,-0.1097,-0.1099,-0.1101,-0.1135,-0.1115,-0.1116,-0.1116,-0.1122,-0.1122,-0.1122,0,0,0,0,0,0,-0.0903,-0.0911,-0.0979,-0.0952,-0.0962,-0.1008,-0.1021,-0.1029,-0.1061,-0.1071,-0.1076,-0.109,-0.1098,-0.11,-0.112,-0.1135,-0.1116,-0.1116,-0.1122,-0.1122,-0.1122,-0.1167,0,0,0,0,0,0,-0.09,-0.0909,-0.0924,-0.0952,-0.0963,-0.1012,-0.1021,-0.103,-0.1065,-0.1071,-0.1094,-0.1098,-0.1099,-0.112,-0.112,-0.1135,-0.1116,-0.1122,-0.1122,-0.1122,-0.1166,-0.1169,-0.1171,0,0,0,0,0,-0.0896,-0.0916,-0.0925,-0.0934,-0.098,-0.1013,-0.102,-0.1054,-0.1066,-0.1085,-0.1098,-0.1098,-0.112,-0.112,-0.1121,-0.1136,-0.1122,-0.1122,-0.1122,-0.1165,-0.1168,-0.1171,0,0,0,0,0,0,-0.0886,-0.0924,-0.0934,-0.0966,-0.0995,-0.1024,-0.1048,-0.1064,-0.1089,-0.11,-0.1102,-0.1106,-0.1127,-0.112,-0.112,-0.1135,-0.1119,-0.1119,-0.1151,-0.1154,-0.1157,-0.1183,-0.1116,0,0,0,0,0,-0.0888,-0.0913,-0.0946,-0.0972,-0.0989,-0.1018,-0.1039,-0.1063,-0.1086,-0.11,-0.1115,-0.1122,-0.1122,-0.1132,-0.1133,-0.1143,-0.116,-0.115,-0.1153,-0.1156,-0.1175,-0.1183,-0.1189,-0.1122,-0.1122,-0.1122,0,0,-0.0889,-0.0916,-0.0929,-0.0972,-0.0996,-0.103,-0.1034,-0.1076,-0.1106,-0.1096,-0.1142,-0.1136,-0.1126,-0.1141,-0.1149,-0.1143,-0.119,-0.1156,-0.1158,-0.1177,-0.1183,-0.119,-0.1196,-0.1122,-0.1122,-0.1122,0,0,-0.0901,-0.093,-0.0953,-0.0985,-0.1032,-0.1052,-0.1068,-0.1109,-0.1132,-0.1164,-0.1159,-0.1165,-0.1177,-0.1173,-0.1169,-0.1184,-0.1203,-0.1182,-0.1224,-0.123,-0.1237,-0.1242,-0.1307,-0.1318,-0.1186,-0.1186,-0.1186,0,-0.09,-0.0938,-0.0965,-0.1002,-0.1038,-0.1065,-0.1105,-0.1126,-0.1169,-0.1193,-0.1188,-0.1207,-0.1191,-0.1206,-0.1209,-0.1193,-0.1223,-0.1214,-0.1237,-0.1242,-0.1247,-0.1312,-0.1323,-0.1188,-0.1188,-0.1187,-0.1187,0,-0.0923,-0.0969,-0.0989,-0.1044,-0.1085,-0.1125,-0.1165,-0.1204,-0.1229,-0.125,-0.1282,-0.1261,-0.128,-0.1259,-0.1241,-0.1264,-0.1286,-0.1239,-0.1234,-0.1257,-0.1323,-0.1335,-0.1191,-0.119,-0.119,-0.1189,0,0,-0.0871,-0.0983,-0.099,-0.1047,-0.1116,-0.1159,-0.121,-0.1268,-0.1328,-0.1334,-0.1396,-0.1361,-0.1365,-0.1359,-0.1331,-0.1324,-0.1378,-0.1305,-0.1304,-0.1383,-0.1451,-0.1434,-0.1445,-0.1339,-0.134,-0.1341,-0.1498,0,-0.0878,-0.0966,-0.1017,-0.1111,-0.1165,-0.1227,-0.1289,-0.1348,-0.139,-0.1456,-0.1427,-0.1469,-0.1397,-0.1421,-0.14,-0.1385,-0.1405,-0.1344,-0.1406,-0.141,-0.14,-0.1454,-0.1345,-0.1506,-0.1509,-0.151,-0.1512,0,-0.0867,-0.0942,-0.1034,-0.1185,-0.1216,-0.1278,-0.1406,-0.1463,-0.1542,-0.1579,-0.1601,-0.1604,-0.1608,-0.1536,-0.1538,-0.151,-0.1497,-0.1473,-0.1477,-0.1454,-0.1411,-0.1467,-0.1532,-0.153,-0.1529,-0.1528,-0.1526,0,-0.082,-0.0953,-0.1038,-0.1083,-0.1243,-0.131,-0.1393,-0.1498,-0.1583,-0.1661,-0.1741,-0.1731,-0.1773,-0.1718,-0.1686,-0.1623,-0.1707,-0.1607,-0.1591,-0.1592,-0.1541,-0.1533,-0.1623,-0.1623,-0.1623,-0.1622,-0.1622,0,-0.0795,-0.0871,-0.1035,-0.1085,-0.1226,-0.1325,-0.147,-0.1549,-0.1682,-0.1804,-0.1805,-0.1894,-0.182,-0.1859,-0.1771,-0.1751,-0.1784,-0.1633,-0.1628,-0.1561,-0.1553,-0.1552,-0.1542,-0.1628,-0.1627,-0.1626,-0.1625,0,-0.0731,-0.0826,-0.0953,-0.1138,-0.1209,-0.1308,-0.1536,-0.164,-0.1762,-0.1923,-0.1964,-0.2055,-0.2094,-0.205,-0.2012,-0.19,-0.1849,-0.1838,-0.186,-0.1848,-0.1711,-0.1701,-0.1815,-0.1816,-0.1816,-0.1817,-0.1817,0,-0.0708,-0.0761,-0.0982,-0.1076,-0.1169,-0.134,-0.1469,-0.1648,-0.1769,-0.2016,-0.2092,-0.2214,-0.2246,-0.2204,-0.2124,-0.2024,-0.1959,-0.1951,-0.173,-0.1746,-0.173,-0.1719,-0.1709,-0.1818,-0.1818,-0.1818,-0.1818,0,-0.067,-0.0751,-0.0856,-0.1043,-0.1195,-0.1379,-0.1573,-0.1674,-0.1895,-0.2037,-0.219,-0.2206,-0.2281,-0.2197,-0.2177,-0.2067,-0.1944,-0.1953,-0.1948,-0.174,-0.175,-0.1731,-0.1721,-0.182,-0.182,-0.182,-0.182,0,-0.0636,-0.0702,-0.0836,-0.0996,-0.1187,-0.1358,-0.1486,-0.1672,-0.1821,-0.2096,-0.2152,-0.2239,-0.2328,-0.223,-0.2191,-0.2114,-0.2008,-0.1879,-0.1874,-0.1872,-0.1797,-0.1813,-0.1929,0,0,0,0,0,-0.0597,-0.0653,-0.0789,-0.0956,-0.114,-0.1241,-0.1532,-0.1659,-0.1898,-0.1987,-0.2072,-0.2131,-0.2116,-0.2137,-0.2043,-0.2131,-0.1971,-0.2011,-0.181,-0.183,-0.1828,-0.1722,0,0,0,0,0,0,-0.0564,-0.0667,-0.074,-0.0878,-0.0965,-0.1161,-0.1338,-0.1512,-0.1589,-0.182,-0.1817,-0.1969,-0.1954,-0.2096,-0.1969,-0.1973,-0.1806,-0.2062,-0.2057,-0.1831,-0.1829,-0.1828,-0.1718,0,0,0,0,0]},{"header":{"parameterUnit":"m.s-1","parameterCategory":2,"la1":30.2991,"la2":30.254,"lo1":-89.0895,"lo2":-89.0444,"dy":0.0017,"dx":0.0017,"nx":28,"ny":28,"refTime":"2024-05-17T03:00:00:Z","depth":"4","parameterNumber":3,"parameterNumberName":"V-component_of_CURRENTS"},"data":[0,0,0,0,0,0,0,0,0,0,0,0,0,0,0,0,0,0,0,0,0,0,0,0,0,0,0,0,0,0,0,0,0,0,0,0,0,0,0,0,0,0,0,0,0,0,0,0,0,0,0,0,0,0,0,0,0,0,-0.0484,-0.0483,0,-0.04,-0.0398,-0.0397,-0.0343,-0.0343,-0.0343,-0.0343,-0.0232,-0.0229,-0.0226,0,0,0,0,0,0,0,0,0,0,0,0,0,-0.051,-0.051,-0.0484,-0.0483,-0.0482,-0.04,-0.0398,-0.0397,-0.0343,-0.0343,-0.0343,-0.0343,-0.0233,-0.023,-0.0226,0,0,0,0,0,0,0,0,0,0,0,0,0,-0.0466,-0.051,-0.0484,-0.0449,-0.0445,-0.04,-0.0398,-0.0396,-0.0343,-0.0343,-0.0343,-0.0343,-0.0235,-0.023,-0.0226,-0.0197,0,0,-0.0212,-0.021,0,0,0,0,0,0,0,0,-0.0468,-0.0464,-0.0455,-0.0451,-0.0447,-0.0385,-0.0367,-0.033,-0.0343,-0.0378,-0.0343,-0.0343,-0.0284,-0.0275,-0.0254,-0.0192,-0.0187,-0.0212,-0.0209,-0.0207,-0.0206,0,0,0,0,0,0,0,-0.0472,-0.0467,-0.0446,-0.0454,-0.0449,-0.0407,-0.0401,-0.0359,-0.0328,-0.0375,-0.0371,-0.0368,-0.0281,-0.0258,-0.0251,-0.0185,-0.0212,-0.0208,-0.0205,-0.0203,-0.0088,-0.0088,0,0,0,0,0,0,-0.0495,-0.0471,-0.0449,-0.0444,-0.0462,-0.0407,-0.04,-0.0402,-0.0329,-0.0319,-0.0369,-0.0366,-0.0266,-0.0256,-0.0247,-0.0203,-0.0207,-0.0203,-0.02,-0.0088,-0.0088,-0.0088,0,0,0,0,0,0,-0.0496,-0.0494,-0.0453,-0.0458,-0.0451,-0.0408,-0.0409,-0.04,-0.0376,-0.0325,-0.0314,-0.0354,-0.0266,-0.0253,-0.0209,-0.0198,-0.0201,-0.0197,-0.0089,-0.0088,-0.0088,-0.0118,0,0,0,0,0,0,-0.0497,-0.0495,-0.0502,-0.046,-0.0451,-0.0432,-0.0409,-0.0399,-0.0376,-0.0372,-0.0309,-0.0299,-0.0265,-0.0216,-0.0204,-0.0192,-0.0193,-0.0089,-0.0089,-0.0088,-0.0117,-0.0118,-0.0119,0,0,0,0,0,-0.0498,-0.0514,-0.0503,-0.05,-0.0464,-0.0433,-0.0424,-0.039,-0.0376,-0.0367,-0.0323,-0.0301,-0.0203,-0.0212,-0.0199,-0.0185,-0.009,-0.0089,-0.0088,-0.0117,-0.0118,-0.0119,0,0,0,0,0,0,-0.0532,-0.0509,-0.0496,-0.0505,-0.0474,-0.0426,-0.0418,-0.0392,-0.0348,-0.0343,-0.0292,-0.0279,-0.0236,-0.0207,-0.0218,-0.015,-0.0144,-0.014,-0.017,-0.0171,-0.0172,-0.016,-0.0189,0,0,0,0,0,-0.0544,-0.0548,-0.0513,-0.0519,-0.0507,-0.046,-0.0443,-0.0417,-0.0377,-0.0357,-0.0313,-0.0266,-0.0221,-0.0196,-0.0154,-0.0115,-0.0078,-0.0099,-0.01,-0.0101,-0.0083,-0.0022,-0.0016,-0.0085,-0.0085,-0.0085,0,0,-0.0564,-0.0548,-0.0553,-0.0526,-0.0498,-0.0477,-0.0449,-0.0425,-0.0398,-0.0352,-0.0305,-0.0266,-0.0212,-0.0168,-0.0147,-0.0144,-0.0065,-0.01,-0.0101,-0.0081,-0.0021,-0.0014,-0.0008,-0.0084,-0.0084,-0.0084,0,0,-0.0598,-0.0585,-0.0596,-0.0566,-0.0529,-0.0494,-0.049,-0.0438,-0.0407,-0.0363,-0.032,-0.027,-0.0213,-0.016,-0.013,-0.0108,-0.0073,-0.0108,-0.0098,-0.0041,-0.0035,-0.0029,0.0011,0.0021,-0.0108,-0.0108,-0.0108,0,-0.0623,-0.0622,-0.0593,-0.0581,-0.0556,-0.0505,-0.0491,-0.0451,-0.039,-0.0354,-0.0356,-0.0239,-0.0201,-0.0122,-0.012,-0.0107,-0.008,-0.0101,-0.0042,-0.0035,-0.0028,0.0011,0.0023,-0.0109,-0.0109,-0.0109,-0.0109,0,-0.0652,-0.0644,-0.0643,-0.0609,-0.0578,-0.0559,-0.0499,-0.046,-0.0421,-0.0372,-0.0294,-0.0235,-0.0161,-0.015,-0.0129,-0.0058,-0.0057,-0.0053,-0.0041,-0.0023,0.0017,0.0029,-0.0111,-0.0111,-0.011,-0.011,0,0,-0.072,-0.0677,-0.0674,-0.0653,-0.0586,-0.0563,-0.0511,-0.0442,-0.0397,-0.0336,-0.0271,-0.0194,-0.0154,-0.0115,-0.0076,-0.0028,0.003,-0.0027,-0.0023,0.001,0.0143,0.0118,0.0129,0.0038,0.004,0.0042,0.0145,0,-0.0747,-0.0742,-0.07,-0.0672,-0.0656,-0.0578,-0.0534,-0.046,-0.0391,-0.0317,-0.0231,-0.0165,-0.0143,-0.0113,-0.0054,0.0016,0.0065,0.0002,0.0125,0.0129,0.0103,0.0144,0.005,0.0155,0.0158,0.016,0.0161,0,-0.0778,-0.0766,-0.0759,-0.0691,-0.0676,-0.0649,-0.0549,-0.0501,-0.0379,-0.0325,-0.0227,-0.016,-0.0055,-0.0059,0.0091,0.0045,0.0096,0.0141,0.0146,0.0149,0.0128,0.014,0.0184,0.0183,0.0181,0.0179,0.0178,0,-0.0832,-0.0796,-0.0792,-0.0769,-0.0695,-0.0666,-0.062,-0.0508,-0.0466,-0.0327,-0.0281,-0.0137,-0.0073,0.0027,0.0131,0.0111,0.0279,0.0264,0.0295,0.0293,0.0296,0.0288,0.0367,0.0367,0.0366,0.0366,0.0366,0,-0.0854,-0.0849,-0.0822,-0.0814,-0.0802,-0.0722,-0.0682,-0.0605,-0.0504,-0.0452,-0.0299,-0.0225,-0.0052,0.0066,0.0149,0.0268,0.03,0.0318,0.0329,0.0277,0.0266,0.0304,0.0295,0.037,0.0369,0.0368,0.0368,0,-0.0892,-0.088,-0.0882,-0.0838,-0.083,-0.0821,-0.0761,-0.0739,-0.0613,-0.0538,-0.05,-0.0287,-0.0123,0.0041,0.0217,0.0283,0.0399,0.0426,0.0363,0.0365,0.0368,0.0356,0.0481,0.0481,0.0481,0.0482,0.0482,0,-0.0899,-0.0915,-0.0927,-0.0954,-0.0937,-0.0921,-0.0928,-0.0822,-0.0791,-0.0582,-0.056,-0.0351,-0.0211,0.0035,0.0211,0.04,0.0408,0.0475,0.0427,0.0387,0.0386,0.0374,0.0362,0.0482,0.0482,0.0482,0.0482,0,-0.0918,-0.0947,-0.0954,-0.1033,-0.1065,-0.1093,-0.1076,-0.1053,-0.0916,-0.0802,-0.0608,-0.0411,-0.0211,0.0013,0.0175,0.0302,0.0443,0.0477,0.0476,0.0433,0.039,0.0385,0.0374,0.0483,0.0483,0.0483,0.0483,0,-0.0943,-0.0977,-0.1032,-0.1088,-0.1172,-0.1243,-0.121,-0.1145,-0.1085,-0.0829,-0.0768,-0.0484,-0.0289,-0.0038,0.0107,0.0247,0.0265,0.0288,0.0298,0.0299,0.0215,0.0131,0.0174,0,0,0,0,0,-0.0951,-0.1006,-0.1081,-0.1162,-0.1267,-0.1317,-0.1308,-0.1256,-0.1106,-0.1005,-0.0874,-0.0679,-0.0358,-0.0184,-0.006,0.0067,0.0256,0.0216,0.0276,0.0487,0.0486,0.0415,0,0,0,0,0,0,-0.0962,-0.1036,-0.1085,-0.1238,-0.1316,-0.143,-0.1442,-0.1342,-0.1251,-0.1054,-0.0892,-0.0683,-0.0394,-0.0459,-0.0073,-0.0013,0.0036,0.0403,0.0405,0.0487,0.0486,0.0486,0.0413,0,0,0,0,0]}]]